Location: Charbonni�res
(45.9952°N, 2.9982°E)
Time: 13:20:38
(UTC+00:00)

NOSS 3-4 (A) - Pass Details

Date: 29 November 2020
Orbit: 879 x 1333 km, 63.4° (Epoch: 22 January)

Event Time Altitude Azimuth Distance (km) Brightness Sun altitude
Exits shadow 04:00:53 65° 120° (ESE) 997 3.6 -31.7°
Drops below altitude 10° 04:07:00 10° 43° (NE) 2,707 6.3 -30.6°
Sets 04:09:42 0° 41° (NE) 3,717 7.1 -30.2°
